Weather in Rameshky

Russia / Tver Oblast     57°20′37″N   36°02′38″E
temp.,
°C
wind,
m/s
gust,
m/s
humid.,
%
clouds,
%
prec.,
mm/h
press.,
hPa
HPBL,
m
14 june, mon
mon1400:00+17ssw227397 0.0 100928
03:00+16wsw227670 0.0 101038
06:00+16w128213 0.0 101187
09:00+21w126267 0.0 1013604
12:00+24w225223 0.5 10131712
15:00+24nw33609 1.1 10141233
18:00+22nw24785 1.5 1014599
21:00+17n128618 2.3 101514
15 june, tue
tue1500:00+14nne22926 0.0 101512
03:00+13ne1194100 0.0 101511
06:00+15sse0191100 0.0 101548
09:00+20ssw237535 0.0 1014544
12:00+24wsw355234 0.1 10121790
15:00+26wsw354325 0.1 10102189
18:00+22w3863100 0.0 1009286
21:00+19wnw2772100 0.0 1010177
16 june, wed
wed1600:00+17nw287094 0.0 1010214
03:00+13nnw31090100 0.0 1012279
06:00+15nw388735 0.0 1013449
09:00+18nnw56630 0.0 10141183
12:00+20nnw56400 0.0 10151840
15:00+22nnw56346 0.0 10162093
18:00+20nw4644100 0.0 10171220
21:00+14nw37675 0.0 1019125
17 june, thu
thu1700:00+12nw35675 0.0 102182
03:00+11nw22775 0.0 102239
06:00+13nw24750 0.0 1023118
09:00+19wnw24525 0.0 1024681
12:00+22wnw35395 0.0 10242069
15:00+24wnw34361 0.0 10232152
18:00+24wnw23465 0.0 10241824
21:00+17nnw11697 0.0 102411
18 june, fri
fri1800:00+15nnw116941 0.0 102511
03:00+13w11735 0.0 102610
06:00+16w11720 0.0 102654
09:00+21wsw23535 0.0 1026521
12:00+25wsw34405 0.0 10261516
15:00+26wsw343887 0.0 10251822
18:00+26sw244868 0.0 10241027
21:00+19sw36760 0.0 102498